Tracking 19245 objects as of 18-Aug-2018
HD Live streaming from Space Station
objects crossing your sky now

PROGNOZ 6

Track PROGNOZ 6 now!
PROGNOZ 6 is classified as:


NORAD ID: 10370
Int'l Code: 1977-093A
Perigee: 2,107.9 km
Apogee: 196,171.3 km
Inclination: 62.3 °
Period: 5,684.6 minutes
Semi major axis: 105510 km
RCS: 2.5179 m2 (large)
Launch date: September 22, 1977
Source: Commonwealth of Independent States (former USSR) (CIS)
Launch site: TYURATAM MISSILE AND SPACE COMPLEX (TTMTR)
aabbcc
Your satellite tracking list
Your tracking list is empty




NASA's NSSDC Master Catalog

Two Line Element Set (TLE):
1 10370U 77093A   18227.78794270 -.00000339  00000-0  00000+0 0  9996
2 10370  62.2723 284.1832 9196395 226.5297   9.6359  0.25331388 35483
Source of the keplerian elements: AFSPC